SCP
0 0 0 0 0 5 4 4 2 2 3 2 1 1 1 0 0 0 1 1 0 0 0 0 3 3 2 3 3 2 1 0 0 0 0 0 0 0 0 0 0 0 0
0 0 0 0 2 6 5 4 2 3 3 3 1 1 1 0 1 1 1 0 1 1 0 3 3 1 0 0 0 0 0 0 0 0 0 0 -0 0 0 0 0 0 0
0 0 0 0 4 5 6 4 3 5 3 2 2 3 2 2 1 2 1 1 1 2 2 2 1 0 0 0 0 0 0 0 0 0 0 0 0 -0 0 0 0 0 0
0 0 0 0 5 5 4 5 6 6 3 2 2 2 2 1 2 1 3 2 1 1 1 1 0 0 0 0 0 0 0 0 0 0 0 0 0 0 0 0 0 0 0
0 0 0 1 4 4 6 6 7 5 3 4 3 2 3 2 2 2 1 1 1 1 0 0 0 0 0 0 0 0 -0 0 0 -0 -0 0 0 0 0 0 0 0 0
0 0 0 2 3 3 5 7 4 7 3 4 2 2 1 1 1 0 1 0 0 0 0 0 0 0 0 -0 -0 -0 0 0 0 0 0 0 0 0 0 0 0 0 0
0 0 0 4 3 2 5 4 4 5 3 3 2 1 1 1 1 1 0 0 0 0 0 0 0 -0 -0 -0 0 0 0 0 0 0 0 0 0 0 0 0 0 0 0
0 0 0 3 3 5 5 6 5 3 3 2 1 1 1 1 1 0 0 0 0 0 0 0 0 0 -0 0 0 0 0 0 0 0 0 0 0 0 0 0 0 0 0
0 0 0 6 2 6 8 7 3 3 3 1 2 1 2 1 0 0 0 0 0 0 0 0 0 -0 -0 0 0 0 0 0 0 0 0 0 0 0 0 0 0 0 0
0 0 0 1 2 8 8 5 4 3 1 2 1 2 1 1 0 0 0 0 0 0 0 0 0 0 0 0 0 0 0 0 0 0 0 0 0 0 0 0 0 0 0
0 0 1 1 1 6 7 6 3 2 2 2 2 1 0 0 0 0 0 0 0 0 0 0 0 0 0 0 0 0 0 0 0 0 0 0 0 0 0 0 0 0 0
0 0 6 0 0 7 7 5 3 2 1 2 1 0 0 0 0 0 0 0 0 0 0 0 0 0 0 0 0 0 0 0 0 0 0 0 0 0 0 0 0 0 0
0 6 4 0 2 4 5 3 1 1 1 1 0 0 0 0 0 0 0 0 0 0 0 0 0 0 0 0 0 0 0 0 0 0 0 0 0 0 0 0 0 0 0
5 4 5 2 1 2 1 0 0 0 0 0 0 0 0 0 0 0 0 0 0 0 0 0 0 0 0 0 0 0 0 0 0 0 0 0 0 0 0 0 0 0 0
3 2 0 2 0 0 0 0 0 0 0 0 0 0 0 0 0 0 0 0 0 0 0 0 0 0 0 0 0 0 0 0 0 0 0 0 0 0 0 0 0 0 0
1 1 1 0 0 0 0 0 0 0 0 0 0 0 0 0 0 0 0 0 0 0 0 0 0 0 0 0 0 0 0 0 0 0 0 0 0 0 0 0 0 0 0
0 0 0 0 0 0 0 0 0 0 0 -0 -0 0 0 0 0 0 0 0 0 0 0 0 0 0 0 0 0 0 0 0 0 0 0 0 0 0 0 0 0 0 0
0 0 0 0 0 0 0 0 0 0 0 0 0 0 0 0 0 0 0 0 0 0 0 0 0 0 0 0 0 0 0 0 0 0 0 0 0 0 0 0 0 0 0
0 0 0 0 0 0 0 0 0 0 0 0 0 0 -0 -0 -0 0 0 0 0 0 0 0 0 0 0 0 0 0 0 0 0 0 0 0 0 0 0 0 0 0 0
0 0 0 0 0 0 0 0 0 0 0 0 -0 -0 -0 -0 0 0 0 0 0 0 0 0 0 0 0 0 0 0 0 0 0 0 0 0 0 0 0 0 0 0 0
0 0 0 0 0 0 0 0 0 0 0 -0 -0 -0 0 0 0 0 0 0 0 0 0 0 0 0 0 0 0 0 0 0 0 0 0 0 0 0 0 0 0 0 0
0 0 0 0 0 0 0 0 0 0 -0 -0 0 0 0 0 0 0 0 0 0 0 0 0 0 0 0 0 0 0 0 0 0 0 0 0 0 0 -0 0 0 0 0
0 0 0 0 0 0 0 0 0 -0 0 0 0 0 0 0 0 0 0 0 0 0 0 0 0 0 0 0 0 0 0 0 0 0 0 0 0 -0 0 0 -0 0 0
0 0 0 0 0 0 0 0 0 0 0 0 0 0 0 0 0 0 0 0 0 0 0 0 0 0 0 0 0 0 0 0 0 0 0 0 -0 -0 -0 0 0 0 0
0 0 0 0 0 0 0 0 0 0 0 0 0 0 0 0 0 0 0 0 0 0 0 0 0 0 0 0 0 0 0 0 0 0 0 0 0 0 0 0 0 0 0
0 0 0 0 0 0 0 0 0 0 0 0 0 0 0 0 0 0 0 0 0 0 0 0 0 0 0 0 0 0 0 0 0 0 0 0 0 0 0 0 0 0 0
Wind_Speed_500mb
57 62 62 57 56 62 73 66 70 66 64 56 50 44 36 36 32 29 28 22 23 21 26 16 29 30 30 32 26 15 22 12 6 22 25 32 40 41 37 22 21 30 34
51 56 60 61 65 71 69 67 73 71 69 59 48 41 37 36 33 29 28 24 25 25 21 33 35 35 37 37 38 29 14 10 6 31 26 18 34 19 14 17 30 28 41
58 56 62 66 66 68 75 74 79 76 72 48 47 45 42 39 36 32 28 30 31 32 31 36 39 30 33 37 37 35 26 15 21 27 26 13 11 35 14 22 19 39 28
60 60 65 70 68 72 79 79 80 78 64 55 51 54 52 48 42 40 44 38 28 23 25 28 23 27 32 41 32 29 20 21 22 17 15 18 21 14 26 16 28 30 25
65 64 70 74 69 78 85 87 86 81 65 62 53 55 51 59 58 46 34 28 31 32 21 21 25 24 21 20 14 13 16 9 9 2 7 13 12 16 21 39 36 28 27
78 72 65 72 75 85 84 88 79 74 71 65 56 61 61 49 42 37 35 36 26 18 24 24 15 13 16 20 12 8 12 13 9 8 9 11 11 17 18 26 31 32 28
80 77 76 82 89 98 94 89 84 82 73 67 69 57 42 34 36 37 39 25 27 35 34 30 26 17 14 8 4 9 7 7 10 11 7 12 10 14 17 21 24 27 23
83 87 92 98 109 108 104 104 93 84 78 70 62 54 48 42 40 33 33 38 37 29 41 34 24 10 5 9 4 2 6 9 13 16 13 5 9 9 14 15 22 25 19
89 88 102 100 108 106 102 103 95 89 79 67 64 57 49 46 36 35 41 36 31 40 31 27 25 16 10 5 4 8 12 14 12 15 9 11 8 10 11 13 15 19 31
86 92 79 95 118 101 100 89 91 91 76 70 63 62 54 43 38 38 34 38 44 33 28 23 14 9 6 3 6 10 10 10 7 4 4 8 5 8 13 15 19 23 25
88 87 52 87 89 107 107 97 92 85 76 75 73 65 55 40 40 40 46 43 39 29 22 14 14 10 6 6 8 5 8 10 10 11 10 10 10 8 13 16 19 22 25
86 59 64 75 35 118 99 95 90 86 88 77 70 59 57 51 52 50 49 41 35 28 21 17 13 8 4 5 6 8 10 9 7 5 8 6 9 9 13 16 22 25 27
76 72 108 95 95 90 97 95 94 93 81 75 68 67 57 55 55 50 46 36 30 23 19 15 10 7 6 8 9 8 9 5 6 5 6 11 12 14 17 18 25 23 28
68 73 74 68 109 100 109 99 95 90 82 79 67 67 64 61 58 49 42 33 26 23 19 15 13 12 11 10 10 7 4 7 6 4 6 10 16 19 21 18 22 25 31
67 82 71 86 98 100 102 99 93 86 88 72 69 68 62 57 50 46 40 34 28 23 19 15 12 10 5 4 11 7 5 5 4 3 11 19 26 22 25 25 30 35 35
67 80 86 93 97 94 97 97 92 93 79 68 66 63 59 55 49 44 40 34 28 25 22 18 14 8 6 5 5 5 10 1 3 7 11 18 22 26 27 33 34 38 44
65 72 82 94 101 102 98 94 90 83 69 68 67 63 58 55 48 42 38 32 27 23 20 17 13 11 10 9 7 7 5 7 11 7 5 4 20 28 31 36 32 30 37
74 69 88 92 96 96 94 94 85 80 78 70 68 63 57 52 46 41 37 32 28 26 23 20 17 13 12 10 8 7 5 3 7 6 6 8 24 36 43 43 36 33 28
74 85 93 97 96 92 92 92 88 82 73 75 71 61 55 49 45 41 38 34 31 28 24 21 18 12 12 11 11 12 2 15 11 22 31 33 33 40 41 39 37 36 32
90 91 101 104 97 90 84 84 81 80 77 70 64 56 51 49 45 41 38 34 31 27 20 20 18 10 11 9 10 15 4 10 11 11 26 36 38 39 41 41 39 40 42
90 94 93 92 90 87 87 84 80 76 70 64 58 55 52 50 45 42 37 33 28 23 20 20 16 15 15 14 10 4 10 7 9 9 16 31 38 38 40 42 44 42 41
84 90 94 86 81 81 83 80 75 72 67 60 58 61 52 45 42 39 35 30 25 23 21 19 16 21 24 28 25 18 13 4 12 13 21 27 36 40 47 44 45 46 41
82 84 89 88 77 74 75 79 70 64 60 62 60 53 48 44 38 34 31 24 23 20 19 17 18 20 19 23 33 34 34 28 13 19 34 42 40 41 33 44 48 40 37
80 78 79 80 75 64 63 65 63 59 58 59 58 50 46 42 37 31 28 25 22 20 20 16 15 12 12 15 13 14 17 20 17 18 27 30 34 34 34 32 33 34 38
76 74 74 76 71 63 62 59 59 58 57 52 49 48 45 40 42 39 28 26 33 29 25 19 21 13 13 18 21 22 26 25 32 30 22 26 29 31 33 34 34 35 38
73 73 70 68 63 59 56 54 52 57 54 52 44 41 39 36 34 35 37 33 26 17 22 25 20 15 19 20 21 30 32 36 35 25 25 29 31 33 34 36 36 36 40
Wind_Direction_500mb
229 222 216 212 203 186 201 197 190 186 186 180 174 178 184 179 183 184 181 196 187 191 195 193 207 213 205 212 207 200 221 205 253 319 307 299 315 316 327 307 316 311 302
227 222 212 208 194 182 195 196 188 184 185 180 173 175 177 175 178 179 181 184 181 186 174 205 219 219 220 223 226 212 183 132 320 325 314 328 313 317 309 294 293 309 321
225 216 209 201 185 186 194 186 176 185 182 177 164 168 167 165 168 179 176 182 181 195 206 217 230 232 234 242 239 214 192 226 298 301 321 334 304 306 317 312 322 319 322
226 218 205 196 182 194 186 182 177 181 174 163 169 169 166 166 173 168 185 187 200 205 203 212 222 240 251 253 236 218 239 272 269 279 269 274 284 317 317 302 325 330 326
222 220 206 190 189 195 186 178 179 175 163 163 168 168 172 178 185 187 190 191 194 203 225 238 227 234 216 194 220 243 205 245 271 250 294 305 311 300 302 316 328 332 328
219 215 210 188 189 187 179 177 175 157 164 159 165 181 186 178 168 180 186 188 179 177 174 184 185 156 150 148 146 189 245 255 267 292 310 317 328 313 312 310 320 325 325
214 207 205 184 185 183 173 166 161 164 157 166 180 183 171 167 164 169 187 177 168 175 171 152 133 138 141 141 236 229 236 277 308 308 333 337 323 325 320 318 318 322 320
209 205 202 190 184 175 168 161 164 157 160 173 169 163 162 155 165 183 147 145 173 175 165 163 166 169 208 287 234 266 308 323 319 318 309 332 341 347 312 328 337 334 343
209 206 207 186 179 170 160 159 156 155 166 156 159 156 148 167 173 154 151 178 178 164 162 171 177 191 238 208 260 303 310 322 333 337 29 54 345 316 336 334 337 349 342
204 208 205 180 201 159 158 153 155 154 150 157 151 149 163 166 161 167 170 153 155 156 161 171 192 188 182 239 320 351 337 348 31 41 2 101 328 4 332 330 332 325 323
200 208 194 167 173 156 150 151 146 147 151 153 156 161 159 158 155 154 150 156 162 163 161 165 158 171 211 272 311 342 21 57 49 19 5 22 5 347 341 324 328 315 318
195 189 146 159 164 139 142 146 143 145 154 157 157 153 150 153 150 151 153 147 153 158 159 155 165 187 251 337 42 76 65 49 36 36 340 7 347 359 342 326 326 321 323
190 149 128 146 158 144 144 145 148 151 155 152 151 147 150 151 150 150 146 150 158 154 138 136 131 109 75 79 78 68 60 44 31 26 337 333 333 334 323 333 318 326 325
129 132 127 124 134 140 147 147 147 151 148 146 148 142 145 147 150 152 152 149 145 140 138 124 107 98 90 80 71 59 28 37 12 345 354 332 309 326 327 341 320 324 326
128 128 125 128 138 136 141 144 143 144 141 137 138 140 138 141 137 138 138 137 134 129 121 117 111 107 147 138 145 134 68 20 30 352 350 322 319 321 329 336 328 329 327
121 125 132 136 138 138 140 141 143 143 145 130 129 131 130 130 130 134 133 131 126 119 113 106 103 114 110 134 171 171 110 158 270 300 313 326 317 317 324 327 333 341 335
125 126 131 137 135 139 139 139 143 142 133 130 131 132 133 134 129 126 125 125 124 121 116 113 124 131 131 128 128 137 93 280 298 319 296 315 311 311 325 327 337 327 323
127 128 131 132 134 137 140 138 138 139 136 131 134 136 132 125 125 126 128 127 122 113 107 99 98 116 117 114 110 105 66 290 285 305 353 344 304 330 330 333 331 330 336
125 127 131 132 134 137 137 139 141 141 135 130 127 127 128 126 124 122 122 117 113 108 105 102 88 93 105 105 105 95 53 343 342 340 343 334 328 331 332 338 337 340 334
123 122 122 120 119 122 130 129 125 125 122 122 127 129 129 124 122 120 115 111 106 104 104 92 92 74 94 89 113 102 68 11 345 320 352 328 331 342 347 353 351 349 350
114 114 114 115 118 121 121 121 124 124 128 129 129 129 126 123 122 118 116 114 115 111 105 95 73 96 69 68 74 95 40 59 355 333 328 323 344 352 3 6 1 5 7
110 110 111 113 119 122 123 122 123 127 131 128 129 127 120 121 119 119 113 109 103 100 102 95 75 41 41 34 30 24 22 48 36 4 358 357 10 20 10 9 16 15 8
109 110 111 113 117 120 124 122 125 130 132 127 123 121 119 115 112 112 108 105 102 103 109 106 95 73 50 21 21 17 21 20 29 16 8 12 14 13 5 2 7 8 3
110 113 113 113 116 121 123 123 127 128 125 125 124 120 117 117 110 103 99 102 101 104 108 103 96 82 60 48 59 20 19 14 28 38 5 7 11 8 5 3 3 2 4
109 112 113 115 118 121 122 124 127 128 124 124 124 120 117 122 130 123 110 131 127 122 119 110 116 104 72 56 51 48 53 57 54 45 16 13 12 10 7 5 3 2 2
111 113 114 115 117 118 118 120 124 128 125 121 123 124 120 115 114 120 120 120 130 135 127 118 104 97 80 68 68 64 66 63 49 34 23 17 13 10 5 4 2 2 358
Wind_Speed_850mb
57 62 62 57 56 62 73 66 70 66 64 56 50 44 36 36 32 29 28 22 23 21 26 16 29 30 30 32 26 15 22 12 6 22 25 32 40 41 37 22 21 30 34
51 56 60 61 65 71 69 67 73 71 69 59 48 41 37 36 33 29 28 24 25 25 21 33 35 35 37 37 38 29 14 10 6 31 26 18 34 19 14 17 30 28 41
58 56 62 66 66 68 75 74 79 76 72 48 47 45 42 39 36 32 28 30 31 32 31 36 39 30 33 37 37 35 26 15 21 27 26 13 11 35 14 22 19 39 28
60 60 65 70 68 72 79 79 80 78 64 55 51 54 52 48 42 40 44 38 28 23 25 28 23 27 32 41 32 29 20 21 22 17 15 18 21 14 26 16 28 30 25
65 64 70 74 69 78 85 87 86 81 65 62 53 55 51 59 58 46 34 28 31 32 21 21 25 24 21 20 14 13 16 9 9 2 7 13 12 16 21 39 36 28 27
78 72 65 72 75 85 84 88 79 74 71 65 56 61 61 49 42 37 35 36 26 18 24 24 15 13 16 20 12 8 12 13 9 8 9 11 11 17 18 26 31 32 28
80 77 76 82 89 98 94 89 84 82 73 67 69 57 42 34 36 37 39 25 27 35 34 30 26 17 14 8 4 9 7 7 10 11 7 12 10 14 17 21 24 27 23
83 87 92 98 109 108 104 104 93 84 78 70 62 54 48 42 40 33 33 38 37 29 41 34 24 10 5 9 4 2 6 9 13 16 13 5 9 9 14 15 22 25 19
89 88 102 100 108 106 102 103 95 89 79 67 64 57 49 46 36 35 41 36 31 40 31 27 25 16 10 5 4 8 12 14 12 15 9 11 8 10 11 13 15 19 31
86 92 79 95 118 101 100 89 91 91 76 70 63 62 54 43 38 38 34 38 44 33 28 23 14 9 6 3 6 10 10 10 7 4 4 8 5 8 13 15 19 23 25
88 87 52 87 89 107 107 97 92 85 76 75 73 65 55 40 40 40 46 43 39 29 22 14 14 10 6 6 8 5 8 10 10 11 10 10 10 8 13 16 19 22 25
86 59 64 75 35 118 99 95 90 86 88 77 70 59 57 51 52 50 49 41 35 28 21 17 13 8 4 5 6 8 10 9 7 5 8 6 9 9 13 16 22 25 27
76 72 108 95 95 90 97 95 94 93 81 75 68 67 57 55 55 50 46 36 30 23 19 15 10 7 6 8 9 8 9 5 6 5 6 11 12 14 17 18 25 23 28
68 73 74 68 109 100 109 99 95 90 82 79 67 67 64 61 58 49 42 33 26 23 19 15 13 12 11 10 10 7 4 7 6 4 6 10 16 19 21 18 22 25 31
67 82 71 86 98 100 102 99 93 86 88 72 69 68 62 57 50 46 40 34 28 23 19 15 12 10 5 4 11 7 5 5 4 3 11 19 26 22 25 25 30 35 35
67 80 86 93 97 94 97 97 92 93 79 68 66 63 59 55 49 44 40 34 28 25 22 18 14 8 6 5 5 5 10 1 3 7 11 18 22 26 27 33 34 38 44
65 72 82 94 101 102 98 94 90 83 69 68 67 63 58 55 48 42 38 32 27 23 20 17 13 11 10 9 7 7 5 7 11 7 5 4 20 28 31 36 32 30 37
74 69 88 92 96 96 94 94 85 80 78 70 68 63 57 52 46 41 37 32 28 26 23 20 17 13 12 10 8 7 5 3 7 6 6 8 24 36 43 43 36 33 28
74 85 93 97 96 92 92 92 88 82 73 75 71 61 55 49 45 41 38 34 31 28 24 21 18 12 12 11 11 12 2 15 11 22 31 33 33 40 41 39 37 36 32
90 91 101 104 97 90 84 84 81 80 77 70 64 56 51 49 45 41 38 34 31 27 20 20 18 10 11 9 10 15 4 10 11 11 26 36 38 39 41 41 39 40 42
90 94 93 92 90 87 87 84 80 76 70 64 58 55 52 50 45 42 37 33 28 23 20 20 16 15 15 14 10 4 10 7 9 9 16 31 38 38 40 42 44 42 41
84 90 94 86 81 81 83 80 75 72 67 60 58 61 52 45 42 39 35 30 25 23 21 19 16 21 24 28 25 18 13 4 12 13 21 27 36 40 47 44 45 46 41
82 84 89 88 77 74 75 79 70 64 60 62 60 53 48 44 38 34 31 24 23 20 19 17 18 20 19 23 33 34 34 28 13 19 34 42 40 41 33 44 48 40 37
80 78 79 80 75 64 63 65 63 59 58 59 58 50 46 42 37 31 28 25 22 20 20 16 15 12 12 15 13 14 17 20 17 18 27 30 34 34 34 32 33 34 38
76 74 74 76 71 63 62 59 59 58 57 52 49 48 45 40 42 39 28 26 33 29 25 19 21 13 13 18 21 22 26 25 32 30 22 26 29 31 33 34 34 35 38
73 73 70 68 63 59 56 54 52 57 54 52 44 41 39 36 34 35 37 33 26 17 22 25 20 15 19 20 21 30 32 36 35 25 25 29 31 33 34 36 36 36 40
Wind_Direction_850mb
229 222 216 212 203 186 201 197 190 186 186 180 174 178 184 179 183 184 181 196 187 191 195 193 207 213 205 212 207 200 221 205 253 319 307 299 315 316 327 307 316 311 302
227 222 212 208 194 182 195 196 188 184 185 180 173 175 177 175 178 179 181 184 181 186 174 205 219 219 220 223 226 212 183 132 320 325 314 328 313 317 309 294 293 309 321
225 216 209 201 185 186 194 186 176 185 182 177 164 168 167 165 168 179 176 182 181 195 206 217 230 232 234 242 239 214 192 226 298 301 321 334 304 306 317 312 322 319 322
226 218 205 196 182 194 186 182 177 181 174 163 169 169 166 166 173 168 185 187 200 205 203 212 222 240 251 253 236 218 239 272 269 279 269 274 284 317 317 302 325 330 326
222 220 206 190 189 195 186 178 179 175 163 163 168 168 172 178 185 187 190 191 194 203 225 238 227 234 216 194 220 243 205 245 271 250 294 305 311 300 302 316 328 332 328
219 215 210 188 189 187 179 177 175 157 164 159 165 181 186 178 168 180 186 188 179 177 174 184 185 156 150 148 146 189 245 255 267 292 310 317 328 313 312 310 320 325 325
214 207 205 184 185 183 173 166 161 164 157 166 180 183 171 167 164 169 187 177 168 175 171 152 133 138 141 141 236 229 236 277 308 308 333 337 323 325 320 318 318 322 320
209 205 202 190 184 175 168 161 164 157 160 173 169 163 162 155 165 183 147 145 173 175 165 163 166 169 208 287 234 266 308 323 319 318 309 332 341 347 312 328 337 334 343
209 206 207 186 179 170 160 159 156 155 166 156 159 156 148 167 173 154 151 178 178 164 162 171 177 191 238 208 260 303 310 322 333 337 29 54 345 316 336 334 337 349 342
204 208 205 180 201 159 158 153 155 154 150 157 151 149 163 166 161 167 170 153 155 156 161 171 192 188 182 239 320 351 337 348 31 41 2 101 328 4 332 330 332 325 323
200 208 194 167 173 156 150 151 146 147 151 153 156 161 159 158 155 154 150 156 162 163 161 165 158 171 211 272 311 342 21 57 49 19 5 22 5 347 341 324 328 315 318
195 189 146 159 164 139 142 146 143 145 154 157 157 153 150 153 150 151 153 147 153 158 159 155 165 187 251 337 42 76 65 49 36 36 340 7 347 359 342 326 326 321 323
190 149 128 146 158 144 144 145 148 151 155 152 151 147 150 151 150 150 146 150 158 154 138 136 131 109 75 79 78 68 60 44 31 26 337 333 333 334 323 333 318 326 325
129 132 127 124 134 140 147 147 147 151 148 146 148 142 145 147 150 152 152 149 145 140 138 124 107 98 90 80 71 59 28 37 12 345 354 332 309 326 327 341 320 324 326
128 128 125 128 138 136 141 144 143 144 141 137 138 140 138 141 137 138 138 137 134 129 121 117 111 107 147 138 145 134 68 20 30 352 350 322 319 321 329 336 328 329 327
121 125 132 136 138 138 140 141 143 143 145 130 129 131 130 130 130 134 133 131 126 119 113 106 103 114 110 134 171 171 110 158 270 300 313 326 317 317 324 327 333 341 335
125 126 131 137 135 139 139 139 143 142 133 130 131 132 133 134 129 126 125 125 124 121 116 113 124 131 131 128 128 137 93 280 298 319 296 315 311 311 325 327 337 327 323
127 128 131 132 134 137 140 138 138 139 136 131 134 136 132 125 125 126 128 127 122 113 107 99 98 116 117 114 110 105 66 290 285 305 353 344 304 330 330 333 331 330 336
125 127 131 132 134 137 137 139 141 141 135 130 127 127 128 126 124 122 122 117 113 108 105 102 88 93 105 105 105 95 53 343 342 340 343 334 328 331 332 338 337 340 334
123 122 122 120 119 122 130 129 125 125 122 122 127 129 129 124 122 120 115 111 106 104 104 92 92 74 94 89 113 102 68 11 345 320 352 328 331 342 347 353 351 349 350
114 114 114 115 118 121 121 121 124 124 128 129 129 129 126 123 122 118 116 114 115 111 105 95 73 96 69 68 74 95 40 59 355 333 328 323 344 352 3 6 1 5 7
110 110 111 113 119 122 123 122 123 127 131 128 129 127 120 121 119 119 113 109 103 100 102 95 75 41 41 34 30 24 22 48 36 4 358 357 10 20 10 9 16 15 8
109 110 111 113 117 120 124 122 125 130 132 127 123 121 119 115 112 112 108 105 102 103 109 106 95 73 50 21 21 17 21 20 29 16 8 12 14 13 5 2 7 8 3
110 113 113 113 116 121 123 123 127 128 125 125 124 120 117 117 110 103 99 102 101 104 108 103 96 82 60 48 59 20 19 14 28 38 5 7 11 8 5 3 3 2 4
109 112 113 115 118 121 122 124 127 128 124 124 124 120 117 122 130 123 110 131 127 122 119 110 116 104 72 56 51 48 53 57 54 45 16 13 12 10 7 5 3 2 2
111 113 114 115 117 118 118 120 124 128 125 121 123 124 120 115 114 120 120 120 130 135 127 118 104 97 80 68 68 64 66 63 49 34 23 17 13 10 5 4 2 2 358